TimeCDT,TemperatureF,Dew PointF,Humidity,Sea Level PressureIn,VisibilityMPH,Wind Direction,Wind SpeedMPH,Gust SpeedMPH,PrecipitationIn,Events,Conditions,WindDirDegrees,DateUTC
12:52 AM,59.0,55.9,90,30.17,7.0,East,3.5,-,N/A,,Clear,90,2013-08-17 05:52:00
1:52 AM,57.0,55.0,93,30.17,6.0,Calm,Calm,-,N/A,,Clear,0,2013-08-17 06:52:00
2:52 AM,55.9,54.0,93,30.16,5.0,Calm,Calm,-,N/A,,Clear,0,2013-08-17 07:52:00
3:14 AM,57.2,53.6,88,30.18,1.5,Calm,Calm,-,N/A,,Clear,0,2013-08-17 08:14:00
3:29 AM,55.4,53.6,94,30.18,2.5,Calm,Calm,-,N/A,,Clear,0,2013-08-17 08:29:00
3:41 AM,55.4,53.6,94,30.18,4.0,NNW,3.5,-,N/A,,Clear,330,2013-08-17 08:41:00
3:52 AM,55.0,53.1,93,30.17,7.0,Calm,Calm,-,N/A,,Clear,0,2013-08-17 08:52:00
4:21 AM,55.4,51.8,88,30.19,2.0,Calm,Calm,-,N/A,,Clear,0,2013-08-17 09:21:00
4:25 AM,55.4,53.6,94,30.19,1.5,Calm,Calm,-,N/A,,Partly Cloudy,0,2013-08-17 09:25:00
4:33 AM,53.6,51.8,94,30.19,3.0,Calm,Calm,-,N/A,,Partly Cloudy,0,2013-08-17 09:33:00
4:52 AM,54.0,52.0,93,30.18,5.0,Calm,Calm,-,N/A,,Partly Cloudy,0,2013-08-17 09:52:00
5:14 AM,53.6,51.8,94,30.18,2.5,Calm,Calm,-,N/A,,Clear,0,2013-08-17 10:14:00
5:22 AM,53.6,51.8,94,30.18,1.5,Calm,Calm,-,N/A,,Clear,0,2013-08-17 10:22:00
5:27 AM,53.6,51.8,94,30.18,4.0,Calm,Calm,-,N/A,,Clear,0,2013-08-17 10:27:00
5:52 AM,53.1,51.1,93,30.17,4.0,Calm,Calm,-,N/A,,Clear,0,2013-08-17 10:52:00
6:37 AM,53.6,51.8,94,30.19,1.8,NW,3.5,-,N/A,,Clear,320,2013-08-17 11:37:00
6:47 AM,53.6,50.0,88,30.20,4.0,NW,4.6,-,N/A,,Clear,320,2013-08-17 11:47:00
6:52 AM,53.1,51.1,93,30.19,5.0,NNW,5.8,-,N/A,,Clear,330,2013-08-17 11:52:00
7:52 AM,57.9,55.0,90,30.19,7.0,Calm,Calm,-,N/A,,Clear,0,2013-08-17 12:52:00
8:52 AM,64.0,57.9,80,30.20,10.0,Calm,Calm,-,N/A,,Clear,0,2013-08-17 13:52:00
9:52 AM,71.1,59.0,66,30.19,10.0,Variable,3.5,-,N/A,,Clear,0,2013-08-17 14:52:00
10:52 AM,75.0,55.9,51,30.20,10.0,ESE,8.1,-,N/A,,Clear,120,2013-08-17 15:52:00
11:52 AM,75.9,57.0,52,30.19,10.0,SE,9.2,-,0.01,,Partly Cloudy,130,2013-08-17 16:52:00
12:52 PM,78.1,55.9,46,30.17,10.0,SE,9.2,-,N/A,,Scattered Clouds,140,2013-08-17 17:52:00
1:52 PM,79.0,54.0,42,30.16,10.0,East,6.9,-,N/A,,Scattered Clouds,100,2013-08-17 18:52:00
2:52 PM,79.0,55.0,44,30.14,10.0,SE,9.2,-,N/A,,Scattered Clouds,140,2013-08-17 19:52:00
3:52 PM,80.1,54.0,40,30.12,10.0,SE,8.1,-,N/A,,Scattered Clouds,130,2013-08-17 20:52:00
4:52 PM,80.1,55.9,43,30.12,10.0,East,8.1,-,N/A,,Scattered Clouds,100,2013-08-17 21:52:00
5:52 PM,79.0,55.0,44,30.11,10.0,ESE,8.1,-,N/A,,Partly Cloudy,110,2013-08-17 22:52:00
6:52 PM,78.1,54.0,43,30.10,10.0,ESE,5.8,-,N/A,,Clear,110,2013-08-17 23:52:00
7:52 PM,73.0,60.1,64,30.11,10.0,Calm,Calm,-,N/A,,Clear,0,2013-08-18 00:52:00
8:52 PM,64.9,59.0,81,30.11,10.0,Variable,3.5,-,N/A,,Clear,0,2013-08-18 01:52:00
9:52 PM,61.0,57.0,87,30.13,10.0,Calm,Calm,-,N/A,,Clear,0,2013-08-18 02:52:00
10:52 PM,59.0,55.9,90,30.13,10.0,Calm,Calm,-,N/A,,Clear,0,2013-08-18 03:52:00
11:52 PM,57.9,55.0,90,30.13,9.0,Calm,Calm,-,N/A,,Clear,0,2013-08-18 04:52:00